Location: D�rnast
(49.6426°N, 11.9755°E)
Time: 02:52:10
(UTC+00:00)

YAOGAN 1 - Pass Details

Date: 24 January 2021
Orbit: 618 x 620 km, 97.9° (Epoch: 24 February)

Event Time Altitude Azimuth Distance (km) Brightness Sun altitude
Rises 18:01:17 0° 173° (S) 2,886 6.0 -20.3°
Reaches altitude 10° 18:03:28 10° 177° (S) 1,984 5.2 -20.6°
Maximum altitude 18:07:45 63° 259° (WSW) 698 3.0 -21.3°
Drops below altitude 10° 18:12:04 10° 340° (NNW) 2,000 5.3 -22.0°
Sets 18:14:18 0° 344° (NNW) 2,911 6.2 -22.4°
